DW8522 Weather Reports


time (UTC)temp
C
wind
direction
speed
KPH
gust
KPH
rain 1hr
cm
rain 24hr
cm
rain mn
cm
humidity
%
barometer
mb
20240613041524 13 91 1.6 6.4 0.00 0.00 0.00 82 1009.3
20240613040020 13 100 1.6 4.8 0.00 0.00 0.00 81 1009.4
20240613034520 13 110 3.2 9.7 0.00 0.00 0.00 80 1009.3
20240613033018 13 120 3.2 8.0 0.00 0.00 0.00 80 1009.4
20240613031518 13 113 1.6 8.0 0.00 0.00 0.00 80 1009.3
20240613030015 13 115 1.6 6.4 0.00 0.00 0.00 79 1009.3
20240613024512 13 101 0.0 6.4 0.00 0.00 0.00 78 1009.5
20240613023011 13 127 1.6 8.0 0.00 0.00 0.00 76 1009.6
20240613021508 13 100 0.0 6.4 0.00 0.00 0.00 75 1009.9
20240613020009 13 94 1.6 4.8 0.00 0.00 0.00 75 1010.0
20240613014508 13 102 1.6 4.8 0.00 0.00 0.00 75 1010.1
20240613013006 13 98 1.6 6.4 0.00 0.00 0.00 74 1010.2
20240613011502 13 68 1.6 4.8 0.00 0.00 0.00 75 1010.2
20240613010102 13 94 1.6 6.4 0.00 0.00 0.00 75 1010.3
20240613004557 13 82 1.6 6.4 0.00 0.00 0.00 76 1010.6
20240613003056 13 91 0.0 4.8 0.00 0.00 0.00 77 1010.9
20240613001604 13 93 1.6 6.4 0.00 0.00 0.00 77 1010.8
20240613000059 12 91 0.0 3.2 0.00 0.00 0.00 77 1011.3
20240612234549 13 130 1.6 6.4 0.00 0.00 0.00 75 1011.4
20240612233045 12 118 0.0 3.2 0.00 0.00 0.00 78 1012.1
20240612231542 12 119 0.0 3.2 0.00 0.00 0.00 79 1012.4
20240612230040 11 119 1.6 3.2 0.00 0.00 0.00 81 1012.5
20240612224535 11 87 0.0 3.2 0.00 0.00 0.00 85 1012.7
20240612223031 10 82 0.0 1.6 0.00 0.00 0.00 86 1012.8
20240612221529 10 242 0.0 1.6 0.00 0.00 0.00 88 1012.9
20240612220024 9 252 0.0 3.2 0.00 0.00 0.00 89 1013.1
20240612214520 8 91 0.0 1.6 0.00 0.00 0.00 89 1013.0
20240612213018 8 81 0.0 1.6 0.00 0.00 0.00 90 1013.0
20240612211514 7 119 0.0 1.6 0.00 0.00 0.00 90 1012.6
20240612210015 7 115 0.0 1.6 0.00 0.00 0.00 91 1012.7
20240612204511 6 117 0.0 1.6 0.00 0.00 0.00 91 1012.5
20240612203006 6 117 0.0 3.2 0.00 0.00 0.00 91 1012.1
20240612201507 6 117 0.0 1.6 0.00 0.00 0.00 91 1012.3
20240612200005 6 119 0.0 3.2 0.00 0.00 0.00 90 1012.2
20240612194506 6 112 0.0 3.2 0.00 0.00 0.00 91 1012.1
20240612193007 6 110 0.0 3.2 0.00 0.00 0.00 91 1012.1
20240612191503 6 108 0.0 4.8 0.00 0.00 0.00 91 1012.0
20240612190001 6 113 0.0 1.6 0.00 0.00 0.00 91 1012.0
20240612184600 6 113 1.6 3.2 0.00 0.00 0.00 92 1011.8
20240612183100 6 115 0.0 1.6 0.00 0.00 0.00 92 1011.9
20240612181658 6 127 0.0 4.8 0.00 0.00 0.00 92 1011.8
20240612180109 6 126 0.0 3.2 0.00 0.00 0.00 92 1011.8
20240612174556 6 119 0.0 4.8 0.00 0.00 0.00 92 1011.8
20240612173055 6 118 0.0 3.2 0.00 0.00 0.00 91 1011.7
20240612171557 6 121 0.0 4.8 0.00 0.00 0.00 91 1011.7
20240612170053 6 108 1.6 3.2 0.00 0.00 0.00 91 1011.6
20240612164614 6 111 1.6 6.4 0.00 0.00 0.00 92 1011.6
20240612163101 6 130 1.6 4.8 0.00 0.00 0.00 91 1011.6
20240612161548 6 118 0.0 4.8 0.00 0.00 0.00 92 1011.8
20240612160047 6 113 0.0 3.2 0.00 0.00 0.00 92 1011.8
20240612154545 6 115 0.0 1.6 0.00 0.00 0.00 92 1012.0
20240612153047 6 115 0.0 1.6 0.00 0.00 0.00 92 1012.1
20240612151543 6 165 1.6 3.2 0.00 0.00 0.00 92 1012.1
20240612150054 6 118 0.0 3.2 0.00 0.00 0.00 92 1012.0
20240612144539 6 115 0.0 3.2 0.00 0.00 0.00 92 1012.1
20240612143039 6 116 0.0 3.2 0.00 0.00 0.00 92 1012.2
20240612141539 6 122 0.0 4.8 0.00 0.00 0.00 92 1012.2
20240612140035 6 115 0.0 1.6 0.00 0.00 0.00 92 1012.4
20240612134534 6 117 0.0 1.6 0.00 0.00 0.00 91 1012.2
20240612133031 6 117 0.0 1.6 0.00 0.00 0.00 92 1012.1
20240612131535 6 115 0.0 1.6 0.00 0.00 0.00 91 1012.1
20240612130033 6 115 0.0 1.6 0.00 0.00 0.00 91 1012.1
20240612124531 6 115 0.0 1.6 0.00 0.00 0.00 91 1012.1
20240612123023 6 115 0.0 1.6 0.00 0.00 0.00 91 1012.1
20240612121522 6 113 0.0 1.6 0.00 0.00 0.00 91 1012.2
20240612120019 6 129 0.0 3.2 0.00 0.00 0.00 91 1012.2
20240612114518 6 99 0.0 1.6 0.00 0.00 0.00 91 1012.2
20240612113018 6 111 0.0 3.2 0.00 0.00 0.00 91 1012.2
20240612111516 6 111 0.0 1.6 0.00 0.00 0.00 90 1012.2
20240612110016 6 111 0.0 1.6 0.00 0.00 0.00 89 1012.1
20240612104514 6 128 0.0 6.4 0.00 0.00 0.00 90 1012.0
20240612103115 6 120 0.0 3.2 0.00 0.00 0.00 90 1012.0
20240612101527 6 119 0.0 3.2 0.00 0.00 0.00 90 1011.9
20240612100025 6 118 0.0 3.2 0.00 0.00 0.00 90 1011.9
20240612094511 6 118 0.0 1.6 0.00 0.00 0.00 89 1011.9
20240612093018 6 119 0.0 4.8 0.00 0.00 0.00 89 1011.9
20240612091514 6 124 0.0 3.2 0.00 0.00 0.00 88 1012.0
20240612090040 7 122 0.0 3.2 0.00 0.00 0.00 88 1011.9
20240612084509 7 111 0.0 3.2 0.00 0.00 0.00 87 1012.0
20240612083016 7 111 0.0 9.7 0.00 0.00 0.00 87 1012.0
20240612081507 7 108 0.0 4.8 0.00 0.00 0.00 87 1011.9
20240612080010 7 118 0.0 1.6 0.00 0.00 0.00 87 1011.7
20240612074512 7 103 0.0 6.4 0.00 0.00 0.00 87 1011.6
20240612073106 7 115 0.0 3.2 0.00 0.00 0.00 86 1011.5
20240612071506 7 115 0.0 3.2 0.00 0.00 0.00 86 1011.7
20240612070006 8 111 0.0 3.2 0.00 0.00 0.00 85 1011.4
20240612064504 8 112 0.0 1.6 0.00 0.00 0.00 85 1011.3
20240612063008 8 108 0.0 1.6 0.00 0.00 0.00 84 1011.2
20240612061508 8 108 0.0 1.6 0.00 0.00 0.00 84 1010.9
20240612060004 8 108 0.0 1.6 0.00 0.00 0.00 83 1010.8
20240612054502 9 108 0.0 1.6 0.00 0.00 0.00 81 1010.7
20240612053100 10 105 0.0 1.6 0.00 0.00 0.00 81 1010.9
20240612051618 10 105 0.0 1.6 0.00 0.00 0.00 80 1010.9
20240612050100 10 104 0.0 1.6 0.00 0.00 0.00 78 1010.7
20240612044559 11 114 0.0 4.8 0.00 0.00 0.00 76 1010.7
20240612043102 11 115 0.0 3.2 0.00 0.00 0.00 74 1010.8